TimeEDT,TemperatureF,Dew PointF,Humidity,Sea Level PressureIn,VisibilityMPH,Wind Direction,Wind SpeedMPH,Gust SpeedMPH,PrecipitationIn,Events,Conditions,WindDirDegrees,DateUTC
12:54 AM,61.0,55.9,83,30.18,10.0,Calm,Calm,-,N/A,,Overcast,0,2013-09-28 04:54:00
1:54 AM,60.1,57.0,90,30.17,10.0,South,3.5,-,N/A,,Overcast,180,2013-09-28 05:54:00
2:54 AM,60.1,55.0,83,30.17,10.0,South,3.5,-,N/A,,Overcast,170,2013-09-28 06:54:00
3:54 AM,57.0,54.0,89,30.17,10.0,Calm,Calm,-,N/A,,Scattered Clouds,0,2013-09-28 07:54:00
4:54 AM,55.9,53.1,90,30.17,10.0,Calm,Calm,-,N/A,,Clear,0,2013-09-28 08:54:00
5:54 AM,55.0,53.1,93,30.19,10.0,Calm,Calm,-,N/A,,Overcast,0,2013-09-28 09:54:00
6:54 AM,54.0,52.0,93,30.21,10.0,Calm,Calm,-,N/A,,Overcast,0,2013-09-28 10:54:00
7:54 AM,55.9,54.0,93,30.23,10.0,Calm,Calm,-,N/A,,Overcast,0,2013-09-28 11:54:00
8:54 AM,57.0,54.0,89,30.24,10.0,Calm,Calm,-,N/A,,Overcast,0,2013-09-28 12:54:00
9:54 AM,60.1,52.0,75,30.25,10.0,Calm,Calm,-,N/A,,Partly Cloudy,0,2013-09-28 13:54:00
10:19 AM,60.8,51.8,72,30.29,10.0,Calm,Calm,-,N/A,,Mostly Cloudy,0,2013-09-28 14:19:00
10:32 AM,62.6,53.6,72,30.30,10.0,Calm,Calm,-,N/A,,Scattered Clouds,0,2013-09-28 14:32:00
10:39 AM,64.4,53.6,68,30.30,10.0,Calm,Calm,-,N/A,,Mostly Cloudy,0,2013-09-28 14:39:00
10:54 AM,64.0,54.0,70,30.25,10.0,SE,3.5,-,N/A,,Mostly Cloudy,130,2013-09-28 14:54:00
11:01 AM,62.6,53.6,72,30.30,10.0,South,4.6,-,N/A,,Mostly Cloudy,180,2013-09-28 15:01:00
11:54 AM,63.0,53.1,70,30.24,10.0,South,5.8,-,N/A,,Mostly Cloudy,180,2013-09-28 15:54:00
12:54 PM,64.9,53.1,65,30.23,10.0,South,3.5,-,N/A,,Overcast,180,2013-09-28 16:54:00
1:54 PM,66.0,53.1,63,30.20,10.0,East,4.6,-,N/A,,Overcast,100,2013-09-28 17:54:00
2:54 PM,66.9,54.0,63,30.17,10.0,Calm,Calm,-,N/A,,Overcast,0,2013-09-28 18:54:00
3:54 PM,69.1,55.0,61,30.17,10.0,SSE,5.8,-,N/A,,Mostly Cloudy,160,2013-09-28 19:54:00
4:54 PM,68.0,55.0,63,30.17,10.0,Variable,3.5,-,N/A,,Mostly Cloudy,0,2013-09-28 20:54:00
5:54 PM,66.0,54.0,65,30.17,10.0,East,6.9,-,N/A,,Clear,100,2013-09-28 21:54:00
6:54 PM,63.0,54.0,72,30.17,10.0,SE,3.5,-,N/A,,Scattered Clouds,130,2013-09-28 22:54:00
7:54 PM,62.1,54.0,75,30.17,10.0,Calm,Calm,-,N/A,,Overcast,0,2013-09-28 23:54:00
8:54 PM,62.1,55.9,80,30.18,10.0,Calm,Calm,-,N/A,,Overcast,0,2013-09-29 00:54:00
9:54 PM,59.0,55.0,87,30.19,10.0,Calm,Calm,-,N/A,,Overcast,0,2013-09-29 01:54:00
10:54 PM,60.1,54.0,80,30.18,10.0,Calm,Calm,-,N/A,,Overcast,0,2013-09-29 02:54:00
11:54 PM,59.0,53.1,81,30.18,10.0,Calm,Calm,-,N/A,,Overcast,0,2013-09-29 03:54:00